This is the latest recevied weather packets stored in our database for station/object IZ8NVY-11. If no packets are shown the sender has not sent any weather packets the latest 10 day(s).
| Time | Temp. | Humidity | Pressure | Rain* | Wind** | Luminosity | Snow |
|---|---|---|---|---|---|---|---|
| 1777995277 | 16.11° C | 39% | 883.9 hPa | - | - | - | - |
| 1777991676 | 17.78° C | 38% | 884 hPa | - | - | - | - |
| 1777988076 | 18.89° C | 36% | 884.2 hPa | - | - | - | - |
| 1777984474 | 20.56° C | 38% | 884.5 hPa | - | - | - | - |
| 1777980873 | 22.78° C | 35% | 884.5 hPa | - | - | - | - |
| 1777977273 | 18.33° C | 39% | 884.7 hPa | - | - | - | - |
| 1777973672 | 18.33° C | 39% | 884.5 hPa | - | - | - | - |
| 1777970071 | 18.33° C | 38% | 884.6 hPa | - | - | - | - |
| 1777966470 | 15.56° C | 33% | 884.2 hPa | - | - | - | - |
| 1777962870 | 15.56° C | 32% | 883.9 hPa | - | - | - | - |
| 1777959269 | 15.56° C | 29% | 883.7 hPa | - | - | - | - |
| 1777955670 | 14.44° C | 28% | 883.9 hPa | - | - | - | - |
| 1777952068 | 14.44° C | 29% | 883.7 hPa | - | - | - | - |
| 1777948467 | 15° C | 29% | 884.1 hPa | - | - | - | - |
| 1777944866 | 15° C | 33% | 884.3 hPa | - | - | - | - |
| 1777941265 | 14.44° C | 42% | 884.9 hPa | - | - | - | - |
| 1777937665 | 15.56° C | 33% | 885 hPa | - | - | - | - |
| 1777934064 | 15.56° C | 36% | 885.5 hPa | - | - | - | - |
| 1777930463 | 15.56° C | 38% | 885.7 hPa | - | - | - | - |
| 1777926862 | 16.11° C | 37% | 885.6 hPa | - | - | - | - |
| 1777923262 | 15° C | 48% | 885.7 hPa | - | - | - | - |
| 1777919661 | 15.56° C | 45% | 885.5 hPa | - | - | - | - |
| 1777916060 | 16.67° C | 44% | 885.5 hPa | - | - | - | - |
| 1777912459 | 18.89° C | 41% | 885.5 hPa | - | - | - | - |
| 1777908860 | 23.89° C | 37% | 885.7 hPa | - | - | - | - |
* Rain since midnight (hover to see other rain measurements)
** Current wind speed in m/s (hover to see current wind gust speed)